Theta_e
307 307 307 307 307 307 307 307 307 306 305 305 306 307 307 307 308 304 297 297 294 289 291 295 296 292 292 292 288 293 289 287 287 285 282 282 284 285 286 288 287 285 283 285 287 283 281 292 293 293 296 302 304 305
306 306 306 306 306 306 306 306 306 305 304 305 304 306 307 307 308 307 297 298 298 294 294 299 300 301 300 298 294 294 291 290 292 286 283 287 284 287 286 281 292 285 288 285 287 286 293 293 296 302 302 301 302 304
306 306 306 305 305 305 305 305 305 305 305 305 305 306 306 307 307 307 300 300 296 291 292 293 294 300 302 301 303 293 290 291 293 295 289 289 284 288 284 285 289 291 295 289 290 293 293 298 301 302 303 302 304 307
305 305 304 304 303 304 304 304 304 305 305 305 305 305 306 306 307 306 300 299 295 295 290 290 301 298 303 302 302 301 294 293 292 293 289 289 287 293 288 290 289 291 293 291 290 295 297 299 300 302 303 305 304 306
303 302 302 302 303 303 303 303 303 303 304 305 306 306 306 306 306 305 301 300 299 294 291 291 297 300 301 302 301 301 298 295 293 291 291 289 295 294 294 291 286 291 291 288 288 296 296 297 301 303 303 303 305 305
301 301 301 301 301 301 301 302 302 303 303 303 304 304 305 306 306 300 295 300 300 299 294 288 294 297 300 302 301 298 298 296 295 294 293 294 299 291 288 286 292 293 298 296 293 298 298 300 303 304 304 305 306 306
299 299 299 299 300 300 300 301 301 302 303 303 304 305 305 305 303 295 295 301 305 304 296 290 288 298 301 301 301 297 299 298 297 297 294 291 293 292 290 286 292 297 299 299 301 300 297 300 300 304 306 306 307 306
298 298 299 299 299 299 300 300 300 301 303 303 304 304 305 304 303 298 300 304 305 301 297 288 287 291 302 294 292 298 294 296 297 294 293 291 292 290 287 294 296 297 297 298 299 302 301 303 303 303 305 305 304 304
297 297 298 298 298 298 299 300 300 301 303 304 304 305 301 297 299 303 309 307 306 301 291 291 284 282 303 298 297 296 294 289 295 291 292 295 290 282 289 292 294 296 297 296 300 301 301 301 301 301 301 302 302 303
296 297 297 297 298 298 299 299 300 302 303 305 302 299 297 300 308 307 301 297 297 297 297 292 292 287 294 296 295 290 291 289 285 291 293 283 283 293 295 296 296 297 298 299 295 296 297 299 299 299 299 300 302 302
296 296 297 297 298 298 299 300 301 302 303 296 293 294 297 303 300 297 293 291 292 289 291 291 291 288 297 293 291 291 284 288 282 289 292 282 281 291 298 299 299 299 299 299 299 300 302 298 300 300 299 301 301 301
296 296 296 297 298 299 301 302 302 297 295 295 295 299 298 295 294 291 289 292 291 288 292 291 292 293 295 297 289 289 282 285 283 294 288 281 289 294 299 300 297 297 300 299 299 300 301 302 302 300 301 301 299 301
295 296 296 297 298 301 302 301 300 300 298 299 296 292 290 291 285 286 281 286 290 294 295 296 293 296 294 295 289 286 281 279 288 281 283 288 294 295 297 298 298 299 301 300 299 301 301 302 302 300 298 301 300 299
295 296 297 297 299 299 298 298 299 297 295 293 291 285 286 284 287 287 288 291 297 296 295 294 293 293 293 290 290 283 287 290 281 278 280 291 295 296 298 298 297 300 301 301 301 301 300 300 299 300 299 299 298 298
295 296 296 298 298 298 297 298 299 293 291 289 289 285 285 290 292 293 295 294 298 300 295 292 292 293 288 290 290 286 282 279 277 279 285 294 299 300 298 299 297 299 300 299 301 300 300 300 299 298 299 298 298 298
295 296 296 299 298 298 298 297 295 293 292 291 289 286 288 288 290 291 293 294 299 300 298 293 289 288 287 289 285 283 279 276 280 287 295 297 299 300 300 301 299 300 300 299 300 302 301 300 300 298 300 299 298 298
295 288 296 298 298 298 298 292 293 292 289 288 287 291 289 290 290 292 293 293 299 297 292 295 288 286 290 284 283 286 282 284 289 292 297 298 298 299 301 302 301 301 298 299 299 300 299 300 300 298 296 297 298 297
289 291 296 297 297 295 292 296 292 290 287 289 286 288 287 289 289 290 293 295 294 298 297 293 294 287 284 282 280 288 291 293 295 297 298 301 302 302 303 300 302 301 299 299 299 299 298 298 297 295 295 296 296 296
293 294 297 297 297 293 287 290 292 285 286 288 288 289 290 290 293 295 295 297 297 299 299 296 292 286 287 290 290 293 295 297 297 296 298 301 300 301 303 303 303 301 299 298 298 298 297 297 296 295 295 294 292 293
297 297 297 297 297 290 287 286 291 287 283 287 289 288 287 288 292 291 293 295 294 295 294 294 292 291 291 294 296 296 296 298 297 296 297 299 302 302 301 301 299 299 298 299 299 297 299 298 296 296 295 293 292 291
293 293 295 293 289 289 287 285 285 286 287 286 289 287 286 288 287 289 288 291 289 291 290 295 296 298 297 297 299 299 297 297 297 299 299 297 299 301 303 302 300 297 297 297 297 298 298 298 296 296 295 294 293 292
290 295 290 291 287 287 285 288 285 287 284 284 284 285 282 280 283 285 288 286 287 289 292 294 297 299 300 299 298 298 299 299 300 298 297 298 300 301 301 302 299 298 298 297 299 299 298 296 298 298 296 294 293 293
294 292 289 289 285 282 281 289 284 285 282 284 284 283 283 282 285 289 285 288 289 293 295 296 297 300 299 300 300 300 301 300 300 299 301 301 301 301 300 299 300 299 298 298 299 297 294 294 296 297 296 294 293 292
295 288 285 283 282 276 285 282 284 283 283 280 279 280 282 283 287 283 283 285 291 295 295 295 299 298 298 298 297 297 299 300 299 298 300 299 300 299 301 302 302 301 301 299 299 296 296 298 295 297 296 295 293 291
279 276 281 275 281 280 280 280 281 279 280 281 281 280 280 284 278 280 281 287 289 290 292 295 297 297 296 297 297 299 298 296 295 295 298 302 300 300 300 302 302 303 302 299 298 297 296 296 295 295 295 293 292 291
272 279 274 279 279 279 279 278 279 279 280 280 282 286 284 283 281 281 286 287 289 290 290 293 295 294 297 297 297 297 297 297 297 296 298 302 302 300 299 298 297 298 302 301 299 298 297 296 295 293 292 291 288 291
275 274 279 284 279 280 277 280 281 278 279 280 281 281 282 279 281 285 287 290 290 292 294 296 297 296 296 298 301 301 301 300 299 299 299 301 302 303 302 300 298 299 302 302 301 300 298 296 294 292 292 291 291 291
280 282 278 279 280 280 278 277 278 277 280 284 284 280 279 281 283 288 291 293 295 297 294 296 298 300 296 297 297 297 298 301 301 301 300 300 301 302 303 303 302 294 303 303 302 301 299 297 295 294 293 291 289 290
281 283 283 279 280 280 280 279 279 281 284 282 280 279 284 288 287 287 288 289 293 291 291 293 294 297 298 296 295 294 295 295 295 293 293 293 293 297 301 297 298 296 296 295 290 296 298 297 296 294 292 290 289 288
281 284 281 280 280 279 282 285 282 285 286 286 286 287 289 287 286 287 286 286 287 287 288 291 293 293 291 292 292 292 292 293 295 295 292 293 297 300 300 300 298 295 295 294 292 290 288 291 289 290 289 287 285 283
284 284 283 282 281 284 285 287 287 287 286 285 287 285 286 285 286 285 284 286 287 287 287 286 288 291 290 288 288 288 288 290 290 293 295 296 297 300 300 299 298 298 296 295 294 293 291 290 288 287 285 283 283 283
284 283 283 282 282 284 287 285 283 284 284 284 283 286 287 285 281 284 285 285 285 284 285 287 286 286 291 291 290 289 287 288 287 287 288 292 295 296 297 297 296 295 294 293 292 290 288 286 284 284 283 283 282 282
283 285 286 285 284 282 285 283 282 281 282 282 285 284 282 279 275 281 286 286 285 284 286 288 288 288 289 289 290 290 289 288 286 285 285 285 285 287 294 295 294 293 291 290 289 288 287 286 285 284 283 282 282 281
Wind_Speed
16 16 17 17 17 17 16 17 17 17 18 20 18 18 17 15 14 4 4 4 3 5 13 16 12 11 8 7 3 4 6 5 4 6 4 3 3 4 4 4 6 2 3 1 4 1 5 15 15 8 6 7 12 15
16 16 15 15 16 16 16 17 18 17 18 19 20 18 17 16 15 7 3 3 2 5 8 11 16 22 19 27 5 1 2 1 3 3 3 3 3 3 4 5 4 3 4 2 2 1 4 12 11 6 8 9 12 14
17 16 15 14 16 16 17 17 17 18 19 19 19 17 17 16 15 9 4 3 1 4 7 4 8 9 4 14 12 4 2 4 3 3 2 2 5 2 2 2 3 3 3 4 5 5 1 9 13 12 9 11 15 14
15 15 17 17 17 18 18 18 18 19 20 20 19 17 17 16 14 12 5 2 2 4 5 8 4 10 6 4 12 6 6 4 0 1 2 3 4 4 2 4 2 3 6 6 4 5 7 11 13 14 18 16 17 15
15 17 18 19 19 19 19 19 19 20 20 21 20 19 18 17 15 10 8 7 8 3 4 7 14 7 3 12 12 10 8 6 2 2 3 4 3 3 1 2 1 3 2 0 3 5 3 6 9 12 13 18 25 21
17 17 19 19 20 20 20 19 20 22 23 22 23 22 20 18 13 3 4 2 7 7 4 5 5 5 2 9 12 12 8 3 3 3 3 4 5 2 2 2 2 4 9 1 3 6 7 10 9 9 12 13 18 11
16 17 18 19 20 20 20 21 22 23 24 24 23 21 19 16 4 3 4 1 2 3 3 5 5 6 5 5 4 3 5 3 3 3 3 3 3 4 1 2 6 7 6 7 6 5 3 5 6 10 11 13 14 14
16 18 19 19 20 21 21 22 24 25 25 26 26 23 20 18 8 6 8 16 6 3 1 3 6 5 4 2 3 5 5 3 4 4 3 2 2 2 1 6 6 5 4 5 10 5 4 5 6 8 7 11 13 13
16 18 19 20 20 21 22 23 24 25 27 29 28 21 1 2 3 2 2 6 2 2 3 3 2 5 1 3 3 1 3 3 2 3 3 2 2 1 6 4 4 5 2 4 8 8 10 9 8 8 9 11 10 11
17 18 19 20 21 21 21 22 22 25 28 27 3 0 2 2 3 2 2 1 1 2 2 4 3 5 2 0 3 2 1 2 0 4 2 3 3 4 5 7 6 5 6 5 2 5 6 6 6 6 7 7 7 6
17 18 19 21 21 22 21 20 20 22 9 5 5 3 4 15 0 3 3 3 3 3 4 5 7 4 3 3 4 1 2 2 1 2 1 1 3 4 5 6 6 6 5 2 4 3 3 1 2 5 5 5 6 8
17 18 20 20 21 21 20 15 12 5 2 6 7 6 3 3 3 3 4 3 5 6 4 5 6 6 3 3 3 3 1 3 3 0 2 2 4 6 5 6 4 4 7 4 2 6 5 5 5 4 5 7 8 10
17 19 19 20 19 18 12 14 14 16 11 2 2 3 1 2 2 5 5 4 3 4 5 4 2 4 1 3 2 3 2 4 2 3 3 4 4 6 6 3 5 6 7 4 3 1 4 4 3 5 5 7 7 9
18 20 21 20 14 14 17 18 19 11 3 3 3 4 5 5 6 6 4 3 5 3 5 3 2 4 3 3 3 3 4 1 4 2 4 2 4 6 6 3 1 8 8 7 5 2 5 5 5 6 7 6 8 9
19 21 20 7 12 15 18 19 16 2 2 4 3 5 7 6 5 4 6 4 6 7 5 1 3 4 1 3 1 1 1 3 5 5 4 3 3 4 2 3 5 8 8 7 5 2 4 4 5 7 7 7 9 10
19 20 2 14 18 21 23 14 3 3 3 4 6 4 5 4 6 4 4 5 5 5 5 2 3 3 3 4 3 5 5 6 6 4 4 3 3 4 4 3 4 5 7 7 6 5 4 4 3 7 7 4 8 10
15 4 16 21 23 24 24 3 2 5 5 5 5 5 5 7 9 10 4 4 4 2 3 4 5 7 3 3 3 4 6 5 5 3 3 6 7 8 7 4 5 6 7 6 6 5 5 6 8 8 8 7 8 10
4 7 18 22 18 10 3 3 4 5 8 7 4 4 4 4 7 7 7 7 1 3 4 4 3 3 5 6 4 5 5 3 4 3 6 9 12 11 10 7 6 7 6 6 7 6 6 7 6 4 6 5 7 8
8 10 19 23 12 4 3 4 3 5 6 4 5 4 4 5 8 10 8 9 7 6 5 2 5 3 4 4 4 2 4 4 4 3 4 9 6 7 7 8 6 6 7 6 7 7 5 7 5 4 4 4 4 4
20 19 18 18 11 3 4 5 3 5 5 5 3 7 4 5 7 5 7 7 5 3 4 3 4 5 5 4 5 5 5 4 4 3 2 3 5 2 5 8 6 6 5 7 7 7 5 5 4 4 4 5 5 5
8 2 3 6 3 4 4 4 5 5 5 4 4 3 5 4 4 3 4 2 1 3 3 4 4 6 7 5 4 5 5 5 5 7 8 4 3 5 4 2 4 4 5 5 8 7 8 7 5 4 5 4 5 5
5 6 3 4 3 4 5 5 4 5 3 4 6 5 4 3 4 4 3 1 3 4 4 4 5 6 5 7 6 6 6 7 5 4 4 6 5 5 8 11 4 4 4 5 8 9 6 5 6 6 7 5 5 5
9 1 3 4 4 4 7 3 4 4 4 4 4 4 4 4 5 3 3 2 4 4 7 7 8 10 11 9 2 3 7 8 5 6 9 9 6 4 4 4 5 5 5 3 6 8 6 10 9 8 6 6 6 6
5 2 4 3 5 5 4 4 3 3 3 3 3 6 5 4 4 3 3 3 7 8 11 15 11 6 5 1 3 4 5 5 6 4 6 8 6 4 5 6 4 4 6 8 8 6 7 9 10 9 8 8 7 7
1 6 3 6 5 5 5 3 3 1 4 9 9 6 5 2 1 1 2 6 9 9 10 12 10 10 3 4 4 4 5 4 5 5 5 8 6 4 3 3 6 3 5 8 9 9 8 9 8 10 9 8 9 9
4 5 7 5 4 2 3 6 7 6 5 5 4 5 3 2 2 3 4 6 7 7 10 10 10 9 6 4 7 6 5 2 4 5 3 8 10 10 9 6 6 5 7 9 9 12 11 9 9 11 9 9 10 11
5 6 5 4 2 3 3 3 5 4 5 4 4 6 5 5 4 3 2 3 2 6 9 7 6 8 6 3 5 6 6 6 5 1 3 4 6 10 11 10 9 7 7 10 11 14 14 13 11 10 9 6 8 11
6 4 5 5 5 3 7 2 2 3 5 3 1 1 3 2 2 3 2 9 9 4 5 9 10 6 8 8 7 7 7 7 7 7 7 8 7 7 6 4 1 11 9 9 10 11 13 14 13 13 12 11 9 9
4 4 5 9 5 4 4 5 5 5 4 1 1 3 2 4 5 5 6 8 7 7 8 9 10 8 5 6 8 9 9 10 12 12 10 5 5 7 7 5 3 3 4 6 8 12 16 13 14 13 13 11 9 8
5 4 4 3 4 5 5 5 4 4 4 4 4 4 2 4 4 7 7 8 9 9 8 8 8 8 8 8 9 12 11 11 10 7 4 4 4 5 6 7 5 4 2 7 11 13 17 16 16 13 12 9 7 7
4 2 4 4 4 6 8 6 5 4 3 4 5 5 4 5 3 6 10 9 8 8 8 9 8 9 9 10 10 8 8 9 11 13 10 7 6 5 6 8 8 6 5 5 8 12 13 11 11 13 12 11 9 8
3 5 3 3 3 5 4 2 3 3 3 2 2 5 4 3 4 3 7 9 8 8 8 6 6 7 7 6 7 6 6 6 8 9 12 8 8 9 7 8 9 9 11 12 9 9 12 13 11 11 11 11 9 9
5 5 2 3 3 4 3 1 2 2 3 5 6 7 5 4 4 4 4 8 6 6 6 7 7 8 10 11 11 8 8 8 12 13 14 14 14 11 7 6 7 10 14 12 12 12 13 14 11 11 12 12 10 9
Wind_Direction
299 299 301 302 303 305 305 307 306 313 316 315 316 315 313 312 311 289 247 218 188 245 277 262 268 267 275 280 267 336 336 8 323 356 5 327 306 330 302 314 338 343 272 236 230 258 277 354 346 24 321 286 305 319
297 299 302 305 305 306 308 305 307 311 313 311 310 307 307 306 305 300 247 212 195 248 266 307 272 257 246 249 241 244 203 240 291 324 336 301 307 294 310 322 352 2 327 287 25 228 354 295 277 329 344 327 308 335
304 308 310 311 308 307 309 306 309 310 310 310 310 305 302 300 300 290 251 250 246 248 271 257 261 253 177 219 185 176 179 210 237 208 278 280 280 262 316 302 293 296 347 3 338 7 226 335 354 353 349 330 341 308
311 320 317 313 311 311 313 310 311 308 315 311 307 304 302 302 304 296 264 205 197 268 274 278 287 278 273 185 173 172 137 88 86 30 257 267 262 213 260 276 335 311 349 331 293 314 328 343 352 326 324 329 321 329
316 314 314 314 315 317 317 317 313 311 312 314 312 310 308 304 298 291 262 238 201 236 292 295 302 268 250 148 144 146 133 132 189 239 231 244 248 252 80 310 313 328 287 20 300 307 281 304 334 286 313 343 329 332
317 320 319 318 318 318 316 318 312 309 311 310 309 309 307 305 308 302 296 145 190 191 283 300 287 293 90 171 154 165 163 136 170 213 245 254 244 123 20 309 235 290 329 255 266 302 279 274 294 355 23 339 307 346
324 323 321 320 320 323 321 317 314 313 310 308 303 299 296 292 270 214 235 175 30 223 259 293 294 270 168 173 178 167 160 190 184 242 234 238 282 84 29 310 300 315 312 318 324 309 348 309 321 9 21 331 342 15
326 323 322 325 325 324 321 320 317 315 312 307 302 297 291 285 269 254 248 250 207 217 259 269 270 316 169 207 247 167 160 171 211 226 284 248 346 91 222 245 298 298 306 330 330 358 280 306 20 36 20 13 5 19
325 322 324 324 324 324 324 323 321 315 310 307 302 302 31 93 200 300 13 102 106 172 244 242 225 268 356 307 247 266 143 175 185 205 257 101 329 205 234 244 282 310 314 297 333 6 14 12 9 24 13 17 12 6
323 324 325 325 326 324 323 324 324 319 314 310 330 263 118 53 305 273 347 146 155 229 243 250 223 258 28 22 271 341 6 234 180 241 91 81 254 250 238 247 247 260 292 287 17 38 24 3 7 29 15 352 359 344
325 326 326 327 327 325 323 324 322 326 336 358 357 346 314 293 233 207 207 186 163 239 225 233 204 218 266 163 228 162 248 304 339 311 14 210 290 246 211 235 249 255 219 72 124 112 54 17 56 43 15 2 8 11
328 327 325 328 327 323 317 321 338 357 301 276 278 297 278 290 256 248 223 200 195 232 212 200 199 187 248 133 99 329 170 27 250 291 185 218 235 209 176 220 169 145 133 93 351 70 48 55 70 58 32 32 43 32
327 325 325 325 322 320 341 348 334 321 316 276 206 238 202 245 235 216 220 240 229 226 206 193 164 157 48 73 73 75 57 242 331 32 243 216 188 140 163 174 167 155 136 141 284 58 86 70 55 70 72 57 48 45
323 322 325 319 319 343 331 322 318 323 286 263 230 255 201 207 237 204 224 231 263 301 274 147 144 144 168 100 135 109 235 116 350 329 249 253 183 152 153 164 81 149 158 204 212 134 88 48 17 22 65 57 53 41
322 321 319 312 332 328 328 320 311 267 257 264 255 244 225 227 265 257 252 257 272 271 227 116 66 114 88 121 169 97 9 274 195 232 237 210 58 358 302 157 134 141 164 175 156 128 90 75 50 43 62 54 49 35
323 318 208 349 337 335 323 319 277 184 250 236 239 275 279 302 287 311 302 299 289 334 339 355 136 131 191 150 123 209 149 224 246 219 215 170 198 235 247 270 214 158 129 139 131 158 117 91 90 76 60 82 69 59
323 240 321 324 324 323 310 260 242 218 224 236 244 229 242 274 267 276 278 272 303 273 177 77 276 202 134 130 182 181 205 213 214 222 194 175 186 220 243 214 196 136 127 129 129 124 85 59 58 73 66 45 62 66
245 281 308 311 321 316 284 227 254 251 236 239 239 235 228 228 270 276 273 276 227 230 132 220 223 156 202 174 237 231 229 246 242 207 170 176 196 207 224 197 166 157 162 156 136 129 106 90 90 86 79 60 58 58
290 299 301 302 306 307 288 269 197 260 252 273 264 255 232 251 253 259 268 275 258 239 150 162 253 199 223 215 183 187 158 175 244 251 206 213 196 205 189 173 186 178 172 165 138 146 141 133 135 125 119 79 76 59
298 289 289 287 303 229 262 258 272 273 261 242 274 278 241 245 264 248 270 276 273 243 153 172 227 222 216 221 186 188 202 197 134 137 155 190 175 219 180 156 187 196 162 167 125 126 122 108 109 135 130 121 98 76
301 244 310 347 276 210 258 270 253 238 260 263 283 336 275 320 305 281 281 276 305 215 240 225 223 252 244 235 194 197 207 196 177 173 194 210 218 141 175 88 233 160 143 138 142 149 147 157 158 143 118 120 112 112
247 281 269 220 231 250 236 232 230 284 318 270 299 272 255 276 286 271 258 244 221 242 229 233 248 238 240 246 236 198 173 156 169 148 110 127 155 179 173 178 194 189 152 153 154 161 166 138 146 133 126 135 123 113
272 237 226 249 240 241 253 183 237 225 243 268 348 348 308 303 261 318 278 278 256 275 312 288 261 248 244 241 185 176 200 165 185 177 174 192 187 176 147 151 162 154 142 192 150 142 144 147 140 135 132 125 116 108
181 233 259 249 204 258 269 254 228 265 282 315 314 291 279 244 287 275 270 338 11 344 352 343 338 333 333 61 138 206 238 198 186 189 183 162 160 176 161 174 147 165 157 146 147 137 135 147 138 142 149 143 133 126
324 270 217 268 258 217 254 254 239 287 323 312 276 258 260 298 299 243 232 15 339 348 343 339 347 347 318 301 329 283 292 177 168 180 164 140 117 96 88 114 124 177 140 152 153 148 142 141 140 145 147 143 142 139
254 237 178 232 262 228 8 357 12 326 303 283 273 274 324 276 256 35 58 338 350 345 340 334 346 332 331 346 14 334 341 325 118 120 178 161 157 158 162 167 161 195 178 170 159 158 151 146 140 138 137 146 143 135
238 267 243 238 224 275 278 287 315 294 271 272 282 337 8 349 356 37 272 283 309 313 324 318 334 312 302 345 25 345 359 15 42 183 148 152 168 170 176 178 188 195 171 160 162 160 155 154 148 146 140 141 147 141
244 272 258 255 256 220 277 241 225 238 241 203 158 163 263 255 320 356 329 344 324 314 353 1 343 4 22 28 17 358 11 14 38 45 52 51 46 46 20 343 129 154 170 175 159 159 156 155 152 149 146 136 124 130
244 270 306 278 276 241 235 222 220 213 214 221 61 306 309 58 358 339 349 348 346 6 357 14 360 356 28 40 33 24 23 33 43 50 54 35 16 15 4 18 20 332 116 117 150 151 149 144 144 141 132 127 122 116
252 214 247 250 236 236 221 205 240 272 271 250 226 252 120 92 24 9 10 7 9 6 353 358 7 10 14 20 32 37 30 27 26 31 32 25 16 13 15 28 37 23 7 121 113 102 98 105 107 110 114 115 117 116
277 277 239 222 248 246 243 242 242 243 235 239 234 224 111 137 129 44 19 6 2 355 3 4 2 4 23 28 27 19 24 12 5 14 22 27 15 38 42 26 30 42 39 55 115 120 124 119 120 122 122 123 123 123
257 237 255 257 272 282 298 234 210 213 211 205 344 37 91 78 65 35 13 356 356 359 354 358 1 352 13 42 48 44 32 22 13 9 8 5 19 29 54 61 55 60 64 58 51 70 87 100 107 110 112 110 109 104
253 271 326 306 295 293 285 110 316 294 60 57 40 33 40 71 79 3 339 353 345 340 355 27 32 32 28 34 38 35 32 38 39 41 40 36 29 17 19 39 60 80 81 77 75 77 79 84 88 96 101 103 106 111